Location: Helion Bumpstead
(52.0500°N, 0.4000°E)
Time: 10:46:36
(UTC+00:00)

Cosmos 2219 Rocket - Pass Details

Date: 15 November 2025
Orbit: 825 x 847 km, 71.0° (Epoch: 09 December)

Event Time Altitude Azimuth Distance (km) Brightness Sun altitude
Exits shadow 06:08:14 - 319° (NW) 2,582 4.2 -10.8°
Reaches altitude 10° 06:08:54 10° 325° (NW) 2,480 4.2 -10.7°
Maximum altitude 06:11:06 12° 348° (NNW) 2,329 4.2 -10.3°
Drops below altitude 10° 06:13:19 10° 11° (N) 2,483 4.6 -10.0°
Sets 06:17:35 0° 41° (NE) 3,419 5.7 -9.4°
